カタログに戻る

STARLINK-3779

運用中通信VLEO
NORAD 52281·PAYLOAD·🇺🇸 United States

打ち上げ Apr 21, 2022 から Cape Canaveral Space Force Station

Loading…

次のパス (今後24時間)

TLE

最新Source: CelesTrak SupGP

元期: Sep 14, 2026, 22:17 UTC

1 52281C 22041W   26257.92895833 -.00023811  00000+0 -72272-3 0  2572
2 52281  53.1596 333.7738 0001128  86.0228 110.0002 15.33552079    16

AllMySatでSTARLINK-3779をリアルタイム追跡

Download on the App Store